Stations météo

réclame
Mon MeteoGroup
Culdrose, Grande-Bretagne (3809): Température de l'air & dewpoint: 19.11.2017 01:00:00 - 25.11.2017 01:00:00 (GMT)Culdrose, Grande-Bretagne (3809): Vitesse du vent & gusts: 19.11.2017 01:00:00 - 25.11.2017 01:00:00 (GMT)Culdrose, Grande-Bretagne (3809): Direction du vent: 19.11.2017 01:00:00 - 25.11.2017 01:00:00 (GMT)Culdrose, Grande-Bretagne (3809): reduced air pressure: 19.11.2017 01:00:00 - 25.11.2017 01:00:00 (GMT)Culdrose, Grande-Bretagne (3809): visibility: 19.11.2017 01:00:00 - 25.11.2017 01:00:00 (GMT)Culdrose, Grande-Bretagne (3809): Quantités de précipitations: 19.11.2017 01:00:00 - 25.11.2017 01:00:00 (GMT)
Date & Time tt [°C] td [°C] ff [km/h] ff [knt] fx [km/h] fx [knt] dd ppp [hPa] vv [km] rr [mm]
25.11.2017 01:00:00 4,8 -1,5 26 14 - - NW 1016,2 27 0,0
25.11.2017 00:00:00 3,9 2,5 13 7 - - N 1016,4 10 0,6
24.11.2017 23:00:00 4,5 2,3 16 9 - - NW 1015,9 10 0,0
24.11.2017 22:00:00 5,8 0,2 28 15 50 27 W 1015,4 10 0,0
24.11.2017 21:00:00 4,7 -0,8 16 9 - - WNW 1015,0 10 0,0
24.11.2017 20:00:00 5,1 -0,5 16 9 - - WNW 1014,6 10 0,0
24.11.2017 19:00:00 5,3 1,5 13 7 - - NW 1014,3 10 0,0
24.11.2017 18:00:00 6,5 3,4 16 9 - - NW 1014,1 10 0,0
24.11.2017 17:00:00 8,0 3,4 8 4 - - NNW 1013,7 10 0,0
24.11.2017 16:00:00 8,1 3,4 13 7 - - NNW 1013,3 35 0,0
24.11.2017 15:00:00 7,9 2,3 11 6 - - N 1012,8 35 0,0
24.11.2017 14:00:00 8,7 2,4 9 5 - - N 1012,6 40 0,0
24.11.2017 13:00:00 9,5 2,4 13 7 - - N 1012,6 35 0,0
24.11.2017 12:00:00 8,5 3,9 11 6 - - N 1012,6 45 0,0
24.11.2017 11:00:00 9,1 6,1 8 4 - - N 1012,6 10 0,0
24.11.2017 10:00:00 7,6 5,5 8 4 - - W 1012,3 10 0,0
24.11.2017 09:00:00 5,8 4,4 9 5 - - WNW 1011,7 10 0,0
24.11.2017 08:00:00 4,9 4,0 8 4 - - W 1010,9 10 0,0
24.11.2017 07:00:00 5,4 4,4 4 2 - - W 1010,0 10 0,0
24.11.2017 06:00:00 5,8 4,4 2 1 - - NW 1009,5 10 -
24.11.2017 05:00:00 6,4 4,3 9 5 - - NW 1009,4 10 0,0
24.11.2017 04:00:00 6,5 4,4 15 8 - - NNW 1008,5 10 0,2
24.11.2017 03:00:00 7,2 4,6 8 4 - - W 1008,3 10 0,0
24.11.2017 02:00:00 7,0 4,7 11 6 - - WNW 1008,1 10 0,0
24.11.2017 01:00:00 7,6 5,6 15 8 - - NW 1007,6 10 0,0
24.11.2017 00:00:00 8,2 4,9 11 6 - - W 1006,8 10 0,0
23.11.2017 23:00:00 7,7 4,8 11 6 - - WNW 1006,5 10 0,0
23.11.2017 22:00:00 8,3 3,1 9 5 - - WNW 1006,2 10 0,0
23.11.2017 21:00:00 9,2 2,2 15 8 - - WSW 1006,3 10 0,0
23.11.2017 20:00:00 9,4 3,7 18 10 - - SW 1006,5 10 0,0
23.11.2017 19:00:00 8,4 2,4 5 3 - - WSW 1006,5 10 0,2
23.11.2017 18:00:00 9,5 0,2 24 13 - - W 1006,3 10 0,0
23.11.2017 17:00:00 10,3 2,1 18 10 - - WSW 1005,8 10 0,0
23.11.2017 16:00:00 10,3 2,2 21 11 46 25 WSW 1005,1 10 0,0
23.11.2017 15:00:00 10,7 0,7 31 17 48 26 W 1004,6 10 0,0
23.11.2017 14:00:00 11,0 0,4 31 17 55 30 W 1004,0 10 0,0
23.11.2017 13:00:00 10,8 3,3 26 14 52 28 WSW 1003,7 10 0,0
23.11.2017 12:00:00 10,8 2,7 31 17 59 32 W 1003,0 10 0,0
23.11.2017 11:00:00 10,6 2,7 26 14 57 31 W 1002,4 10 0,0
23.11.2017 10:00:00 9,3 4,1 28 15 55 30 W 1001,7 10 0,0
23.11.2017 09:00:00 9,4 1,9 26 14 52 28 W 1000,1 10 0,0
23.11.2017 08:00:00 9,1 2,0 24 13 46 25 W 998,9 10 0,0
23.11.2017 07:00:00 8,8 1,1 28 15 54 29 W 997,5 10 0,0
23.11.2017 06:00:00 8,5 1,5 22 12 - - W 995,8 10 0,0
23.11.2017 05:00:00 7,4 2,7 24 13 52 28 WNW 994,7 10 0,0
23.11.2017 04:00:00 8,3 6,0 24 13 52 28 W 992,8 10 0,0
23.11.2017 03:00:00 9,1 8,2 34 18 55 30 WNW 990,8 3,0 0,2
23.11.2017 02:00:00 12,2 10,5 18 10 48 26 WSW 988,5 4,0 0,0
23.11.2017 01:00:00 12,6 11,6 28 15 46 25 SW 987,2 3,5 0,0
23.11.2017 00:00:00 12,4 11,4 22 12 - - SW 986,5 4,5 0,0
22.11.2017 23:00:00 12,0 10,8 26 14 46 25 SSW 986,0 4,5 0,0
22.11.2017 22:00:00 12,4 10,7 26 14 52 28 SSW 986,2 4,5 0,0
22.11.2017 21:00:00 12,6 11,1 34 18 65 35 SSW 986,6 3,5 0,0
22.11.2017 20:00:00 12,7 10,8 41 22 68 37 SSW 986,4 4,5 0,0
22.11.2017 19:00:00 13,0 11,4 42 23 85 46 SSW 987,1 3,0 1,2
22.11.2017 18:00:00 13,3 11,8 48 26 94 51 SSW 987,6 3,0 0,2
22.11.2017 17:00:00 13,3 11,6 44 24 93 50 SSW 988,2 3,0 0,2
22.11.2017 16:00:00 13,5 11,6 42 23 83 45 SSW 988,9 2,5 0,0
22.11.2017 15:00:00 14,0 11,0 42 23 85 46 S 989,8 6 0,0
22.11.2017 14:00:00 13,8 11,8 46 25 93 50 S 990,8 5 0,0
22.11.2017 13:00:00 13,9 12,3 41 22 81 44 S 992,6 4,5 0,0
22.11.2017 12:00:00 14,1 12,3 41 22 80 43 S 994,0 4,5 0,0
22.11.2017 11:00:00 14,0 12,2 42 23 78 42 S 995,0 6 0,0
22.11.2017 10:00:00 13,7 12,1 41 22 74 40 S 995,7 6 0,0
22.11.2017 09:00:00 13,8 12,0 37 20 68 37 S 996,9 4,0 0,0
22.11.2017 08:00:00 13,7 12,1 34 18 72 39 SSW 997,8 4,0 0,0
22.11.2017 07:00:00 13,7 12,1 37 20 67 36 SSW 998,6 5 0,0
22.11.2017 06:00:00 13,5 12,1 34 18 65 35 S 999,6 4,0 0,0
22.11.2017 05:00:00 13,5 12,1 34 18 65 35 SSW 1000,5 5 0,0
22.11.2017 04:00:00 13,3 11,9 34 18 63 34 SSW 1001,5 4,0 0,0
22.11.2017 03:00:00 13,4 11,9 34 18 61 33 SSW 1002,5 4,0 0,0
22.11.2017 02:00:00 13,3 11,9 34 18 61 33 SSW 1003,4 4,0 0,0
22.11.2017 01:00:00 13,3 11,7 29 16 54 29 SSW 1004,6 4,0 0,0
22.11.2017 00:00:00 13,3 11,4 26 14 54 29 SSW 1005,6 8 0,0
21.11.2017 23:00:00 13,3 11,6 31 17 57 31 SSW 1006,2 4,0 0,0
21.11.2017 22:00:00 13,2 12,0 31 17 55 30 SSW 1006,4 4,0 0,0
21.11.2017 21:00:00 13,3 12,0 29 16 55 30 SSW 1006,7 4,0 0,0
21.11.2017 20:00:00 13,4 11,7 35 19 57 31 SSW 1007,2 6 0,0
21.11.2017 19:00:00 13,5 11,5 34 18 57 31 SSW 1007,7 10 0,0
21.11.2017 18:00:00 13,4 11,7 34 18 57 31 SSW 1008,1 10 0,0
21.11.2017 17:00:00 13,4 11,8 42 23 59 32 SSW 1008,5 10 0,0
21.11.2017 16:00:00 13,4 11,9 35 19 55 30 SSW 1009,0 10 0,0
21.11.2017 15:00:00 13,4 11,8 34 18 55 30 SSW 1009,3 10 -
21.11.2017 14:00:00 13,4 11,9 39 21 52 28 SSW 1009,7 10 0,0
21.11.2017 13:00:00 13,6 12,0 39 21 50 27 SSW 1010,7 10 0,0
21.11.2017 12:00:00 13,6 12,0 35 19 48 26 SSW 1011,7 10 0,0
21.11.2017 11:00:00 13,4 11,7 37 20 48 26 SSW 1012,2 10 0,0
21.11.2017 10:00:00 13,0 11,3 35 19 - - SSW 1012,3 10 -
21.11.2017 09:00:00 12,7 10,6 28 15 - - SSW 1012,6 10 0,0
21.11.2017 08:00:00 12,3 10,2 26 14 - - SSW 1012,8 10 0,0
21.11.2017 07:00:00 12,3 10,1 26 14 - - SW 1012,8 10 0,0
21.11.2017 06:00:00 12,2 8,8 28 15 - - SW 1013,1 10 0,0
21.11.2017 05:00:00 12,2 9,0 29 16 - - SW 1013,5 10 0,0
21.11.2017 04:00:00 12,2 8,8 26 14 - - SW 1013,8 10 0,0
21.11.2017 03:00:00 12,2 8,3 22 12 - - SW 1014,3 10 0,0
21.11.2017 02:00:00 12,2 8,8 22 12 - - SW 1014,8 10 0,0
21.11.2017 01:00:00 12,3 8,7 21 11 - - SW 1015,1 10 0,0
21.11.2017 00:00:00 12,1 10,3 16 9 - - SSW 1015,4 10 0,0
20.11.2017 23:00:00 11,7 10,2 13 7 - - SW 1015,7 10 0,0
20.11.2017 22:00:00 11,9 10,2 16 9 - - SW 1016,3 10 0,0
20.11.2017 21:00:00 11,8 9,9 18 10 - - SW 1016,6 10 0,0
20.11.2017 20:00:00 11,9 9,8 22 12 - - SW 1016,8 10 0,0
20.11.2017 19:00:00 12,1 10,3 21 11 - - SW 1016,8 10 0,0
20.11.2017 18:00:00 12,1 10,6 22 12 - - SW 1016,8 10 0,0
20.11.2017 17:00:00 12,1 10,3 26 14 - - SW 1016,8 10 0,0
20.11.2017 16:00:00 12,5 10,7 24 13 - - SW 1017,2 10 0,0
20.11.2017 15:00:00 13,2 11,0 18 10 - - WSW 1017,5 10 0,0
20.11.2017 14:00:00 13,3 10,5 21 11 - - WSW 1017,7 10 0,0
20.11.2017 13:00:00 12,9 10,6 21 11 - - WSW 1018,3 10 0,0
20.11.2017 12:00:00 12,8 10,3 21 11 - - WSW 1018,7 10 0,0
20.11.2017 11:00:00 12,7 10,0 18 10 - - WSW 1019,3 10 0,0
20.11.2017 10:00:00 13,0 9,8 24 13 - - WSW 1019,1 10 0,0
20.11.2017 09:00:00 12,3 9,4 24 13 - - WSW 1019,3 10 0,0
20.11.2017 08:00:00 12,2 8,7 26 14 48 26 SW 1019,4 10 0,0
20.11.2017 07:00:00 12,1 8,9 26 14 46 25 SW 1019,2 10 0,0
20.11.2017 06:00:00 12,2 8,7 34 18 48 26 SW 1019,6 10 0,0
20.11.2017 05:00:00 12,0 9,0 26 14 50 27 SW 1019,9 10 0,0
20.11.2017 04:00:00 11,8 8,6 29 16 52 28 SW 1020,2 10 0,0
20.11.2017 03:00:00 11,8 7,7 31 17 52 28 SW 1020,5 10 0,0
20.11.2017 02:00:00 11,7 7,6 26 14 46 25 SW 1021,2 10 0,0
20.11.2017 01:00:00 11,5 7,0 26 14 - - SW 1021,7 10 0,0
20.11.2017 00:00:00 11,6 7,1 29 16 46 25 SW 1022,2 10 0,0
19.11.2017 23:00:00 11,5 7,5 21 11 - - SW 1022,8 10 0,0
19.11.2017 22:00:00 11,1 7,2 21 11 - - SW 1023,5 10 0,0
19.11.2017 21:00:00 11,3 8,8 18 10 - - SW 1023,6 10 -
19.11.2017 20:00:00 11,3 8,3 13 7 - - WSW 1024,0 10 0,0
19.11.2017 19:00:00 11,2 9,7 9 5 - - WSW 1024,1 10 0,0
19.11.2017 18:00:00 11,1 9,7 8 4 - - W 1023,9 10 0,0
19.11.2017 17:00:00 10,6 9,2 9 5 - - W 1024,1 10 0,0
19.11.2017 16:00:00 11,6 10,6 13 7 - - W 1024,1 8 0,2
19.11.2017 15:00:00 11,7 11,1 8 4 - - SW 1024,0 6 0,0
19.11.2017 14:00:00 11,3 10,7 4 2 - - S 1024,5 3,0 0,2
19.11.2017 13:00:00 11,6 10,1 5 3 - - SSE 1024,7 3,5 0,0
19.11.2017 12:00:00 11,7 9,6 8 4 - - SE 1024,9 10 0,0
19.11.2017 11:00:00 11,2 9,5 8 4 - - ESE 1025,0 10 0,0
19.11.2017 10:00:00 10,4 9,2 8 4 - - SE 1024,9 10 0,0
19.11.2017 09:00:00 9,9 9,5 11 6 - - ENE 1025,0 6 0,0
19.11.2017 08:00:00 10,2 9,8 11 6 - - ENE 1024,8 0,6 -
19.11.2017 07:00:00 11,2 10,7 8 4 - - N 1024,2 10 0,0
19.11.2017 06:00:00 11,6 10,9 9 5 - - NW 1023,9 6 0,0
19.11.2017 05:00:00 11,8 10,7 13 7 - - W 1023,7 8 0,0
19.11.2017 04:00:00 11,8 10,8 15 8 - - W 1023,6 5 0,0
19.11.2017 03:00:00 11,9 10,8 18 10 - - WNW 1023,9 10 0,0
19.11.2017 02:00:00 11,8 10,7 18 10 - - W 1023,8 10 0,0
19.11.2017 01:00:00 11,7 10,5 22 12 - - WNW 1024,1 10 0,0

tt = Température de l'air
td = dewpoint
ff = Vitesse du vent
fx = gusts
dd = Direction du vent
ppp = reduced air pressure
vv = visibility
rr = Quantités de précipitations

stations d'obs. à proximité